Portada
METAR-TAF:

METAR-TAF

Aeroports :

Tena, Equador

latitud: 01-03-35S, longitud: 77-35-00W, altitud: 376 m

Observació

L'informe es va fer fa 17 minuts, a les 12:00 UTC
Vent 1 kt del Oest
Temperatura 22°C
Humitat 94%
Pressió 1014 hPa
Visibilitat 10 km o més
Núvols disperses a una alçada de 2600 ft
Cel ennuvolat a una alçada de 10000 ft

METAR: SEJD 021200Z 28001KT 9999 SCT026 BKN100 22/21 Q1014 RMK A2995

Hora: 07:17 (12:17 UTC)


TAF: manca

Observacions i pronòstics meteorològics de més de 4000 aeroports (METAR i TAF).

Les estacions disponibles són els punts grocs i vermells al mapa.

Posi el ratolí al punt desitjat per veure el nom de l'estació.

Feu clic per veure les observacions i els pronòstics meteorològics.

Per canviar el mapa: feu clic els botons verds amb una creu de color negre per apropar; al botó verd amb un guió per allunyar la imatge; o en les fletxes verdes per a mapes adjacents.


METAR-TAF: